Location: Complexul Astronomic Baia Mare
(47.6577°N, 23.5639°E)
Time: 06:43:24
(UTC+03:00)

ISS - Pass Details

Date: 26 May 2017
Orbit: 402 x 408 km, 51.6° (Epoch: 29 May)

Event Time Altitude Azimuth Distance (km) Brightness Sun altitude
Rises 01:14:10 0° 283° (WNW) 2,332 0.2 -21.2°
Maximum altitude 01:19:28 39° 2° (N) 625 -2.4 -21.2°
Drops below altitude 10° 01:22:36 10° 74° (ENE) 1,466 -0.8 -21.2°
Sets 01:24:45 0° 82° (E) 2,325 0.1 -21.2°
